Regional Weather Roundup
Issued by NWS Charleston, SC

Current Version | Previous Version | Graphics & Text | Print | Product List | Glossary On
Versions: 1 2 3 4 5 6 7 8 9 10 11 12 13 14 15 16 17 18 19 20 21 22 23 24 25 26 27 28 29 30 31 32 33 34 35 36 37 38 39 40 41 42 43 44 45 46 47 48 49 50
000
ASUS42 KCHS 300711
RWRCHS

REGIONAL WEATHER ROUNDUP
NATIONAL WEATHER SERVICE CHARLESTON SC
200 AM EST FRI JAN 30 2015

NOTE: "FAIR" INDICATES FEW OR NO CLOUDS BELOW 12,000 FEET WITH NO
SIGNIFICANT WEATHER AND/OR OBSTRUCTIONS TO VISIBILITY.

NOT ALL STATIONS ARE QUALITY CONTROLLED BY THE NATIONAL
WEATHER SERVICE. USE DATA WITH CAUTION...ESPECIALLY
DEWPOINT OBSERVATIONS.

SCZ027-030-031-034>040-042>050-300800-
...SOUTHEAST SOUTH CAROLINA...

CITY           SKY/WX    TMP DP  RH WIND       PRES   REMARKS
N CHARLESTON   CLOUDY    51  45  79 SW7       30.10F
WATERFRONT PRK   N/A     54 N/A N/A SW7         N/A
MOUNT PLEASANT PTSUNNY   54  46  76 S6        30.10F
PINOPOLIS        N/A     52  45  76 SW7       30.01F
MONCKS CORNER  CLOUDY    52  45  76 SW7       30.08F
SUMMERVILLE    PTSUNNY   50  45  81 S3        30.10F
BEAUFORT MCAS  CLOUDY    52  45  77 SW6       30.11F
BEAUFORT ARPT  PTSUNNY   52  46  82 SW5       30.10F
HILTON HEAD IS CLOUDY    54  46  76 S7        30.12F
WALTERBORO     CLOUDY    52  45  76 SW6       30.10F
ALLENDALE      CLOUDY    52  39  62 CALM      30.08F

...SOUTHERN MIDLANDS AND PEE DEE...

CITY           SKY/WX    TMP DP  RH WIND       PRES   REMARKS
GEORGETOWN     NOT AVBL
KINGSTREE      NOT AVBL
ORANGEBURG     CLOUDY    50  38  63 SW9       30.06F
BARNWELL       CLOUDY    54  36  50 SW7       30.08F
AIKEN          CLOUDY    52  34  50 SW10      30.08F
MANNING        CLOUDY    52  41  66 SW6       30.07F
COLUMBIA       CLOUDY    52  33  48 SW8       30.03F
SUMTER         CLOUDY    47  38  69 SW7       30.02F
FLORENCE       CLOUDY    50  40  68 SW13      30.02F
MYRTLE BEACH   CLOUDY    54  43  66 SW7       30.09F
N MYRTLE BEACH CLOUDY    51  44  77 SW8       30.06F

$$

GAZ063-065-086>088-099>101-113>116-118-119-134>141-150-300800-
...SOUTHEAST GEORGIA...

CITY           SKY/WX    TMP DP  RH WIND       PRES   REMARKS
SAVANNAH ARPT  CLOUDY    52  40  63 SW7       30.12F
HUNTER AAF     CLOUDY    52  44  74 SW7       30.10F
FORT STEWART   MOCLDY    52  37  56 SW7       30.11F
STATESBORO     CLOUDY    53  38  55 SW7       30.10S
SYLVANIA       CLOUDY    52  39  61 SW5       30.10F
CLAXTON        FAIR      52  37  58 W5        30.12S

...CSRA...CENTRAL AND FAR SOUTHEAST GEORGIA...

CITY           SKY/WX    TMP DP  RH WIND       PRES   REMARKS
THOMSON        CLOUDY    53  40  62 SW6       30.10F
AUGUSTA-BUSH   CLOUDY    51  33  50 SW8       30.07F
AUGUSTA-DANIEL CLOUDY    51  32  48 S6        30.06F
SWAINSBORO     PTSUNNY   55  28  35 SW7       30.10F
VIDALIA        CLOUDY    54  39  58 SW8       30.11F
EASTMAN        CLOUDY    53  40  62 SW3       30.14S
HAZLEHURST     FAIR      54  44  68 SW7       30.11F
ALMA           MOCLDY    50  37  61 SW7       30.14F
WAYCROSS       MOCLDY    52  43  69 W9        30.15F
JESUP          PTSUNNY   52  39  62 SW6       30.13F
BAXLEY         FAIR      52  37  58 W6        30.13S
BRUNSWICK      MOCLDY    50  39  66 SW6       30.16F
SAINT SIMONS   PTCLDY    50  41  71 W6        30.16F

$$

SCZ027-028-034-036>038-045-046-048>050-GAZ119-141-300800-
...LAKE AND SUPPLEMENTAL COASTAL OBSERVATIONS...

STATION/POSITION TIME  TEMP    WIND        PRES    WAVE   SWELL
                       AIR SEA DIR/SP/G            HT/PER HT/PER/DIR
                 (UTC) (F)     (DEG/KT/KT) (MB)    (FT/S) (FT/S/D)
UPR LAKE MARION  NOT AVBL
WINYAH BAY       NOT AVBL
LAKE MURRAY      0600   52     220/  9/ 13 1016.9F
ACE BASIN NERRS  NOT AVBL
FORT PULASKI     0600   51 52  200/  4/  6 1020.9F
SAPELO ISLAND    0600   51     240/  5     1021.0F

$$

ANZ835-935-AMZ111-154-330-350-352-354-370-450-454-472-300800-
...C-MAN AND BUOY OBSERVATIONS...

STATION/POSITION TIME  TEMP    WIND        PRES    WAVE   SWELL
                       AIR SEA DIR/SP/G            HT/PER HT/PER/DIR
                 (UTC) (F)     (DEG/KT/KT) (MB)    (FT/S) (FT/S/D)
BUOY 41004       0650   63 68  240/ 21/ 27 1019.0F   5/ 5   2/11
BUOY 41008       0650   54 53  240/ 12/ 12 1020.9F   3/12   2/ 80/12
FOLLY BEACH CMAN 0700   53     220/ 10/ 12 1019.7F
CAPERS NEARSHORE 0600   53     250/ 12/ 14   N/A
FRIPP NEARSHORE  NOT AVBL


STATION/POSITION TIME  TEMP    WIND        PRES    WAVE   SWELL
                       AIR SEA DIR/SP/G            HT/PER HT/PER/DIR
                 (UTC) (F)     (DEG/KT/KT) (MB)    (FT/S) (FT/S/D)
5E ST. MARYS GA  0621      56                N/A     3/11   2/ 70/11
FRYING PAN BUOY  0650   62 67  240/ 23/ 29 1018.8F   6/ 5   2/ 40/ 9
BUOY 41025       0650   62 70  250/ 29/ 39 1016.3F   7/ 5   2/ 90/10
CAPE LOOKOUT NC  0700   54     250/ 16/ 19 1017.6F
BUOY 41002       0650   62 72  240/ 14/ 19 1021.9F   5/ 8   3/ 30/ 8
BUOY 41010       0620   66 75  230/  8/ 12 1022.5F
ST AUGUSTINE FL  0700   51     280/  4/  4 1022.8R


$$


USA.gov is the U.S. government's official web portal to all federal, state and local government web resources and services.